Aeroporto :
LOGIN :

Iscrizione | Disclaimer

   EN    FR    IT 

 










Sommario :    VFR   VFR Marginale   IFR   IFR Intensivo   IFR Molto Intensivo
Visibilità : 
Base nubi : 
>= 8 km
>= 3000ft
5 / 8 km
1000 / 3000 ft
1500m / 5 km
500 / 1000 ft
800 / 1500m
200 / 500 ft
< 800m
< 200 ft
Simboli :   Temporali  Nebbia  Neve Forte  Precipitazioni Forti  Vento > 20 kt
SIGMETs :   Varie  Temporali  Ghiacco  Turbolenza  Onda orograficha  Ceneri Vulcaniche







- Altitudine del aeroporto : 187 ft


LPMR - Monte Real Air Base

METARs OBSOLETI :
  • 171800Z 35009KT 9999 FEW020 10/06 Q1021

TAF TAF LPMR
Valido dal 17 a 18 ore il 18 a 18 ore UTC


171700Z 1718/1818 36015KT 9999 FEW020
BECMG 1718/1721 01008KT CAVOK
PROB30 1723/1808 VRB02KT 4000 BR
BECMG 1810/1812 18012KT SCT015 BKN030
TEMPO 1815/1818 4000 RADZ BR SCT009 BKN014
BECMG 1816/1818 SCT007 BKN016
Nessun NOTAM noto per questo aeroporto.



MetMap, La meteo Aeronautica in un colpo d'occhio ! - Copyright ORBIFLY Dicembre 2007 - Disclaimer

ORBIFLY MET'MAP TEAM :

Programmazione e sviluppo : Alexandra Zaïnal
Concezione e sviluppo : Baudouin d'Aumeries
Co-Programmazione e sviluppo : Marc-Olivier Méhu
Supporto tecnico e logistico : Manuel Goepfert
Aiuto per la traduzione : Arnaldo La Scala

Contatto : metmap@orbifly.com




FONTI E CREDITI :

   NOAA